Regional Weather Roundup
Issued by NWS Grand Forks, ND

Home | Current Version | Previous Version | Graphics & Text | Print | Product List | Glossary On
Versions: 1 2 3 4 5 6 7 8 9 10 11 12 13 14 15 16 17 18 19 20 21 22 23 24 25 26 27 28 29 30 31 32 33 34 35 36 37 38 39 40 41 42 43 44 45 46 47 48 49 50
274
ASUS43 KFGF 182210
RWRFGF
PRAIRIE TO PINES  WEATHER ROUNDUP
NATIONAL WEATHER SERVICE EASTERN NORTH DAKOTA/GRAND FORKS ND
400 PM CST WED JAN 18 2017

 **SATELLITE DATA USED TO AUGMENT SKY COVER AT AUTOMATED STATIONS**
 *****  WEATHER ACROSS EASTERN NORTH DAKOTA  *****

CITY           SKY/WX    TMP DP  RH WIND       PRES   REMARKS
GRAND FORKS    FAIR      32  24  72 S9        29.67S WCI  24
GRAND FRKS AFB FAIR      35  27  72 S13       29.67R
DEVILS LAKE    FAIR      37  29  72 SW7       29.62F
FARGO          FAIR      36  27  69 S12       29.71S
WAHPETON ARPT  FAIR      34  28  80 SE9       29.75R
$$

 ***** WEATHER ACROSS CENTRAL AND WESTERN NORTH DAKOTA  *****

CITY           SKY/WX    TMP DP  RH WIND       PRES   REMARKS
BISMARCK       FAIR      30  24  78 E3        29.66S
MINOT          FAIR      43  29  57 S7        29.54F
JAMESTOWN      FAIR      38  28  67 SW7       29.66S
MINOT AFB      FAIR      40  29  64 SW12      29.53F
GARRISON         N/A     35  28  75 S8        29.59F
WILLISTON      FAIR      37  27  67 SW7       29.57S
DICKINSON      FAIR      39  25  57 S16       29.58S
HETTINGER      FAIR      41  27  57 CALM      29.64F
$$

 *****  OTHER AIRPORT OBSERVATIONS IN OUR AREA  *****

CITY           SKY/WX    TMP DP  RH WIND       PRES   REMARKS
WALHALLA       NOT AVBL
GRAFTON AIRPOR FAIR      30  27  86 SE10      29.68R WCI  21
VALLEY CITY AR FAIR      32  30  93 S8        29.70R WCI  25
CANDO          NOT AVBL
CAVALIER APRT    N/A     32  27  80 S10       29.63S WCI  24
GWINNER        FAIR      34  28  80 SW14      29.72R WCI  24
SHEYENNE NWR     N/A     37  26  65 SW7       29.95S
ROLLA            N/A    N/A N/A N/A MISG        N/A
 ***** THE ABOVE OBSERVATIONS ARE NON NWS ARE NOT QUALITY
       CONTROLLED AND MAY MIS-REPORT RAIN FOR SNOW...
$$

  *****  WEATHER ACROSS NORTHERN MINNESOTA  *****

CITY           SKY/WX    TMP DP  RH WIND       PRES   REMARKS
FLAG ISLAND    FAIR      27  21  80 SE5       29.68S WCI  21
WARROAD        FAIR      30  25  80 CALM      29.68S
ROSEAU         FAIR      34  27  75 S7        29.67F
HALLOCK        FAIR      28  25  86 S16       29.65S WCI  17
THF RVR FALLS    N/A     32  24  72 S7        29.71R
BAUDETTE       FAIR      36  24  62 S8        29.69R
WASKISH        MOCLDY    41  27  56 CALM      29.71R
CROOKSTON      FAIR      28  25  86 S12       29.71R WCI  18
GREENBUSH NDAW   N/A     30  25  80 S7          N/A  WCI  23
$$
  *****  WEATHER ACROSS CENTRAL AND WEST MINNESOTA  *****

CITY           SKY/WX    TMP DP  RH WIND       PRES   REMARKS
FOSSTON        FAIR      36  25  64 S7        29.71S
BEMIDJI        FAIR      41  28  60 SE3       29.71S
PARK RAPIDS    FAIR      38  24  57 S9        29.73R
ELBOW LAKE     FAIR      34  28  81 E9        29.76R HAZE
WADENA         FAIR      37  27  65 SE8       29.75R
DETROIT LAKES  FAIR      41  28  60 SE7       29.73R
MOORHEAD       FAIR      32  27  80 S10       29.73R WCI  24
FERGUS FALLS   FAIR      36  27  69 S12       29.79R
MORRIS MN      FAIR      36  30  80 SE9       29.76R
STAPLES        FAIR      37  25  60 S10       29.77R
$$
  *****  WEATHER ELSEWHERE ACROSS MINNESOTA  *****

CITY           SKY/WX    TMP DP  RH WIND       PRES   REMARKS
DULUTH         FAIR      39  27  62 SW7       29.78R
INTRNTL FALLS  FAIR      38  24  57 S3        29.72R
ELY            FAIR      37  25  60 CALM      29.75R
CLOQUET        FAIR      39  25  56 S8        29.78S
WHEATON        FAIR      45  36  70 S8        29.76S
BRAINERD       FAIR      36  27  69 S10       29.78S
HIBBING        FAIR      41  25  53 VRB3      29.75S
ALEXANDRIA     FAIR      37  27  67 S9        29.77S
SAINT CLOUD    FAIR      37  30  75 S9        29.81F
MINNEAPOLIS    FAIR      41  31  67 SW9       29.86S
$$

  *****  WEATHER ACROSS SOUTH DAKOTA  *****

CITY           SKY/WX    TMP DP  RH WIND       PRES   REMARKS
SIOUX FALLS    FAIR      45  38  76 S8        29.81S
BROOKINGS      FAIR      38  31  76 S10       29.77F
WATERTOWN      FAIR      34  28  79 S6        29.75F
HURON          FAIR      38  29  70 SE7       29.74F
SISSETON         N/A     41  30  65 CALM      29.72S
ABERDEEN       FAIR      32  22  66 S8        29.73F WCI  25
MITCHELL       FAIR      47  35  63 SE7       29.76F
PIERRE         FAIR      33  23  66 CALM      29.70F
MOBRIDGE       FAIR      28  20  71 SE12      29.66F WCI  18
RAPID CITY     FAIR      38  27  64 CALM      29.64F
$$

  *****  SOME WEATHER IN NEARBY STATES *****

CITY           SKY/WX    TMP DP  RH WIND       PRES   REMARKS
GLASGOW MT       N/A    N/A N/A N/A MISG        N/A
GREAT FALLS MT FAIR      47  28  47 SW24G32   29.55F
CHEYENNE WY    FAIR      53  15  22 W12       29.78S
SCOTTSBLUFF NE FAIR      47  29  49 E5        29.74F
OMAHA NE       FAIR      48  40  73 SE13      29.91S
DES MOINES IA  FAIR      45  36  70 S14       29.98R
DAVENPORT IA   FAIR      39  33  79 S7        30.05S
CHICAGO IL     MOCLDY    36  32  85 SW8       30.05S
EAU CLAIRE WI  FAIR      38  31  76 S9        29.88F
LA CROSSE WI   FAIR      37  31  78 S10       29.95S
$$

  *****  SOME NATIONAL WEATHER *****

CITY           SKY/WX    TMP DP  RH WIND       PRES   REMARKS
LA GUARDIA NY  CLOUDY    42  37  82 N9        29.99R
RALEIGH NC     FAIR      65  34  31 VRB5      29.99R
ATLANTA GA     FAIR      69  52  54 W12       30.08S
NEW ORLEANS LA PTSUNNY   75  68  78 S12       30.03F
OKLAHOMA CITY  CLOUDY    56  43  61 S8        29.99F
ALBUQUERQUE NM PTSUNNY   46  36  68 CALM      30.00F
SALT LAKE CITY FAIR      30  22  72 CALM      29.98F
LOS ANGELES CA PTSUNNY   58  48  69 W9        30.10F
BOISE ID       LGT SNOW  27  24  89 VRB6      29.87F FOG     WCI  20
SEATTLE WA     CLOUDY    50  45  83 E13       29.33F
$$

*** WEATHER ACROSS MANITOBA...SASKATCHEWAN AND ONTARIO ***
                ***ONTARIO***

CITY           SKY/WX    TMP DP  RH WIND       PRES   REMARKS
GERALDTON      PTCLDY    32  25  74 NW5       29.73R
THUNDER BAY    MOCLDY    36  25  64 W3        29.75R
SIOUX LOOKOUT  MOCLDY    30  23  74 S2        29.72R
TORONTO        CLOUDY    37  34  87 W8        29.99S
BIG TROUT LK   CLOUDY    34  30  86 NW6       29.68R
PICKLE LAKE    PTCLDY    32  25  74 CALM      29.70R
DRYDEN         CLEAR     32  25  74 S3        29.70R
KENORA         MOCLDY    32  25  74 S7        29.67S
$$
                *** MANITOBA***

CITY           SKY/WX    TMP DP  RH WIND       PRES   REMARKS
BRANDON        MOCLDY    32  27  80 CALM      29.54S
DAUPHIN        CLEAR     36  30  80 E3        29.46F
ISLAND LAKE    MOCLDY    30  27  86 SE8       29.63R WCI  23
PILOT MOUND      N/A     30  27  86 S9          N/A  WCI  22
THE PAS        CLOUDY    37  28  70 SE12G20   29.35F
THOMPSON       CLOUDY    32  30  93 VRB5      29.53S
WINNIPEG       CLOUDY    30  25  80 S12       29.61F WCI  21
LYNN LAKE      FOG       30  30 100 E10       29.37F VSB 3/8 WCI  21
CHURCHILL      FLURRIES   3   1  92 VRB2      29.72R
GILLAM         FLURRIES  28  27  93 E5        29.63S WCI  23
$$
                ***SASKATCHEWAN***

CITY           SKY/WX    TMP DP  RH WIND       PRES   REMARKS
ESTEVAN        MOSUNNY   34  28  80 SW13      29.52R WCI  25
KINDERSLEY     PTSUNNY   39  32  75 SW13      29.30S
LLOYDMINSTER   MOCLDY    43  32  65 W13G20    29.20R
PRINCE ALBERT  MOCLDY    41  32  70 SW10      29.23F
REGINA         MOCLDY    39  30  70 S9        29.44R
YORKTON        CLEAR     39  30  70 S14       29.41S
N. BATTLEFORD  CLEAR     39  32  75 SW9       29.26R
LA RONGE       MOCLDY    37  30  75 S7        29.21R
SASKATOON      MOCLDY    43  32  65 SW16      29.29S
SWIFT CURRENT  CLOUDY    41  32  70 SW17      29.38R
$$
NOTE: THESE ARE AUTOMATED STATIONS WITH LIMITED QUALITY CONTROL
      "FAIR" INDICATES FEW OR NO CLOUDS BELOW 12,000 FEET WITH NO
      SIGNIFICANT WEATHER AND/OR OBSTRUCTIONS TO VISIBILITY.
      SKY/WX - SKY CONDITION AND SIGNIFICANT WEATHER.
      TMP - AIR TEMPERATURE.    DP   - DEWPOINT TEMPERATURE.
      RH  - RELATIVE HUMIDITY.  PRES - PRESSURE.
      HX  - HEAT INDEX.         WCI  - WIND CHILL INDEX.
$




USA.gov is the U.S. government's official web portal to all federal, state and local government web resources and services.